| time (UTC) | temp C | wind direction | speed KPH | gust KPH | rain 1hr cm | rain 24hr cm | rain mn cm | humidity % | barometer mb |
| 20260509102039 | 19 | 0 | 0.0 | 3.2 | 0.00 | 0.00 | 0.00 | 48 | 1017.4 |
| 20260509101041 | 19 | 90 | 0.0 | 1.6 | 0.00 | 0.00 | 0.00 | 45 | 1017.2 |
| 20260509100043 | 20 | 0 | 0.0 | 1.6 | 0.00 | 0.00 | 0.00 | 45 | 1017.1 |
| 20260509095046 | 20 | 180 | 0.0 | 1.6 | 0.00 | 0.00 | 0.00 | 40 | 1017.1 |
| 20260509094048 | 20 | 225 | 0.0 | 1.6 | 0.00 | 0.00 | 0.00 | 39 | 1016.9 |
| 20260509093050 | 20 | 135 | 0.0 | 3.2 | 0.00 | 0.00 | 0.00 | 38 | 1016.8 |
| 20260509092053 | 20 | 225 | 0.0 | 4.8 | 0.00 | 0.00 | 0.00 | 37 | 1016.7 |
| 20260509091055 | 21 | 180 | 3.2 | 4.8 | 0.00 | 0.00 | 0.00 | 36 | 1016.7 |
| 20260509090057 | 21 | 225 | 3.2 | 4.8 | 0.00 | 0.00 | 0.00 | 35 | 1016.6 |
| 20260509085100 | 21 | 90 | 1.6 | 6.4 | 0.00 | 0.00 | 0.00 | 34 | 1016.5 |
| 20260509084102 | 21 | 90 | 0.0 | 11.3 | 0.00 | 0.00 | 0.00 | 35 | 1016.5 |
| 20260509083104 | 22 | 180 | 3.2 | 8.0 | 0.00 | 0.00 | 0.00 | 35 | 1016.4 |
| 20260509082107 | 22 | 180 | 1.6 | 6.4 | 0.00 | 0.00 | 0.00 | 35 | 1016.3 |
| 20260509081109 | 22 | 180 | 3.2 | 12.9 | 0.00 | 0.00 | 0.00 | 35 | 1016.2 |
| 20260509080111 | 22 | 270 | 1.6 | 8.0 | 0.00 | 0.00 | 0.00 | 34 | 1016.1 |
| 20260509075114 | 23 | 90 | 6.4 | 14.5 | 0.00 | 0.00 | 0.00 | 33 | 1016.0 |
| 20260509074116 | 23 | 90 | 4.8 | 17.7 | 0.00 | 0.00 | 0.00 | 33 | 1016.0 |
| 20260509073118 | 23 | 90 | 1.6 | 12.9 | 0.00 | 0.00 | 0.00 | 31 | 1016.0 |
| 20260509072120 | 23 | 90 | 3.2 | 9.7 | 0.00 | 0.00 | 0.00 | 32 | 1016.0 |
| 20260509071123 | 23 | 0 | 0.0 | 14.5 | 0.00 | 0.00 | 0.00 | 32 | 1015.9 |
| 20260509070125 | 23 | 68 | 11.3 | 17.7 | 0.00 | 0.00 | 0.00 | 32 | 1015.8 |
| 20260509065127 | 24 | 270 | 3.2 | 12.9 | 0.00 | 0.00 | 0.00 | 28 | 1015.4 |
| 20260509064129 | 24 | 90 | 6.4 | 16.1 | 0.00 | 0.00 | 0.00 | 28 | 1015.5 |
| 20260509063131 | 23 | 45 | 4.8 | 14.5 | 0.00 | 0.00 | 0.00 | 28 | 1015.4 |
| 20260509062134 | 24 | 135 | 3.2 | 9.7 | 0.00 | 0.00 | 0.00 | 27 | 1015.3 |
| 20260509061136 | 23 | 90 | 6.4 | 16.1 | 0.00 | 0.00 | 0.00 | 29 | 1015.5 |
| 20260509060138 | 25 | 68 | 9.7 | 17.7 | 0.00 | 0.00 | 0.00 | 26 | 1015.2 |
| 20260509055141 | 24 | 90 | 4.8 | 9.7 | 0.00 | 0.00 | 0.00 | 27 | 1015.4 |
| 20260509054143 | 23 | 90 | 6.4 | 11.3 | 0.00 | 0.00 | 0.00 | 27 | 1015.4 |
| 20260509053145 | 24 | 113 | 6.4 | 19.3 | 0.00 | 0.00 | 0.00 | 25 | 1015.4 |
| 20260509052148 | 26 | 270 | 3.2 | 12.9 | 0.00 | 0.00 | 0.00 | 24 | 1015.2 |
| 20260509051150 | 27 | 225 | 3.2 | 16.1 | 0.00 | 0.00 | 0.00 | 23 | 1014.9 |
| 20260509050152 | 27 | 225 | 6.4 | 16.1 | 0.00 | 0.00 | 0.00 | 22 | 1014.8 |
| 20260509045154 | 26 | 270 | 6.4 | 11.3 | 0.00 | 0.00 | 0.00 | 21 | 1014.9 |
| 20260509044156 | 25 | 90 | 4.8 | 16.1 | 0.00 | 0.00 | 0.00 | 22 | 1014.7 |
| 20260509043159 | 25 | 90 | 8.0 | 20.9 | 0.00 | 0.00 | 0.00 | 22 | 1014.9 |
| 20260509042201 | 25 | 90 | 9.7 | 22.5 | 0.00 | 0.00 | 0.00 | 22 | 1014.9 |
| 20260509041202 | 26 | 90 | 8.0 | 16.1 | 0.00 | 0.00 | 0.00 | 21 | 1014.9 |
| 20260509040204 | 26 | 90 | 6.4 | 17.7 | 0.00 | 0.00 | 0.00 | 22 | 1015.0 |
| 20260509035207 | 27 | 90 | 3.2 | 12.9 | 0.00 | 0.00 | 0.00 | 19 | 1015.0 |
| 20260509034209 | 26 | 0 | 3.2 | 12.9 | 0.00 | 0.00 | 0.00 | 21 | 1015.0 |
| 20260509033211 | 26 | 0 | 3.2 | 11.3 | 0.00 | 0.00 | 0.00 | 23 | 1015.1 |
| 20260509032213 | 28 | 45 | 6.4 | 14.5 | 0.00 | 0.00 | 0.00 | 20 | 1015.1 |
| 20260509031216 | 27 | 135 | 4.8 | 12.9 | 0.00 | 0.00 | 0.00 | 20 | 1015.1 |
| 20260509030218 | 27 | 180 | 3.2 | 9.7 | 0.00 | 0.00 | 0.00 | 16 | 1015.2 |
| 20260509025220 | 26 | 225 | 4.8 | 12.9 | 0.00 | 0.00 | 0.00 | 14 | 1015.5 |
| 20260509024222 | 26 | 225 | 3.2 | 9.7 | 0.00 | 0.00 | 0.00 | 14 | 1015.5 |
| 20260509023225 | 26 | 90 | 3.2 | 17.7 | 0.00 | 0.00 | 0.00 | 15 | 1015.7 |
| 20260509022227 | 26 | 225 | 3.2 | 22.5 | 0.00 | 0.00 | 0.00 | 16 | 1015.9 |
| 20260509021229 | 25 | 45 | 9.7 | 17.7 | 0.00 | 0.00 | 0.00 | 16 | 1015.9 |
| 20260509020231 | 25 | 0 | 6.4 | 19.3 | 0.00 | 0.00 | 0.00 | 17 | 1016.2 |
| 20260509015234 | 25 | 68 | 12.9 | 22.5 | 0.00 | 0.00 | 0.00 | 16 | 1016.3 |
| 20260509014236 | 25 | 45 | 4.8 | 20.9 | 0.00 | 0.00 | 0.00 | 17 | 1016.4 |
| 20260509013238 | 24 | 45 | 3.2 | 16.1 | 0.00 | 0.00 | 0.00 | 19 | 1016.6 |
| 20260509012240 | 23 | 270 | 3.2 | 17.7 | 0.00 | 0.00 | 0.00 | 18 | 1016.6 |
| 20260509011243 | 24 | 45 | 9.7 | 19.3 | 0.00 | 0.00 | 0.00 | 20 | 1016.8 |
| 20260509010245 | 24 | 45 | 6.4 | 17.7 | 0.00 | 0.00 | 0.00 | 20 | 1016.9 |
| 20260509005247 | 24 | 45 | 6.4 | 16.1 | 0.00 | 0.00 | 0.00 | 19 | 1017.0 |
| 20260509004249 | 23 | 45 | 8.0 | 12.9 | 0.00 | 0.00 | 0.00 | 21 | 1017.0 |
| 20260509003252 | 23 | 90 | 3.2 | 16.1 | 0.00 | 0.00 | 0.00 | 21 | 1016.9 |
| 20260509002254 | 23 | 225 | 3.2 | 12.9 | 0.00 | 0.00 | 0.00 | 22 | 1016.9 |
| 20260509001256 | 22 | 45 | 3.2 | 17.7 | 0.00 | 0.00 | 0.00 | 24 | 1017.0 |
| 20260509000258 | 22 | 315 | 3.2 | 17.7 | 0.00 | 0.00 | 0.00 | 24 | 1017.2 |
| 20260508235301 | 21 | 90 | 8.0 | 17.7 | 0.00 | 0.00 | 0.00 | 25 | 1017.3 |
| 20260508234303 | 21 | 68 | 6.4 | 17.7 | 0.00 | 0.00 | 0.00 | 28 | 1017.4 |
| 20260508233305 | 21 | 45 | 9.7 | 17.7 | 0.00 | 0.00 | 0.00 | 27 | 1017.2 |
| 20260508232308 | 20 | 68 | 11.3 | 17.7 | 0.00 | 0.00 | 0.00 | 30 | 1017.4 |
| 20260508231310 | 20 | 45 | 9.7 | 17.7 | 0.00 | 0.00 | 0.00 | 31 | 1017.5 |
| 20260508230312 | 20 | 90 | 8.0 | 14.5 | 0.00 | 0.00 | 0.00 | 30 | 1017.5 |
| 20260508225314 | 20 | 270 | 3.2 | 12.9 | 0.00 | 0.00 | 0.00 | 31 | 1017.4 |
| 20260508224317 | 19 | 90 | 4.8 | 12.9 | 0.00 | 0.00 | 0.00 | 34 | 1017.5 |
| 20260508223319 | 18 | 0 | 4.8 | 25.7 | 0.00 | 0.00 | 0.00 | 34 | 1017.6 |
| 20260508222321 | 17 | 180 | 3.2 | 32.2 | 0.00 | 0.00 | 0.00 | 34 | 1017.5 |
| 20260508221324 | 18 | 90 | 9.7 | 17.7 | 0.00 | 0.00 | 0.00 | 36 | 1017.3 |
| 20260508220326 | 17 | 45 | 3.2 | 12.9 | 0.00 | 0.00 | 0.00 | 43 | 1017.1 |
| 20260508215328 | 16 | 90 | 0.0 | 3.2 | 0.00 | 0.00 | 0.00 | 48 | 1017.2 |
| 20260508214331 | 15 | 225 | 0.0 | 3.2 | 0.00 | 0.00 | 0.00 | 54 | 1017.0 |
| 20260508213333 | 15 | 90 | 1.6 | 3.2 | 0.00 | 0.00 | 0.00 | 58 | 1016.7 |
| 20260508212335 | 14 | 315 | 0.0 | 1.6 | 0.00 | 0.00 | 0.00 | 61 | 1016.7 |
| 20260508211337 | 13 | 135 | 0.0 | 3.2 | 0.00 | 0.00 | 0.00 | 60 | 1016.5 |
| 20260508210340 | 13 | 225 | 0.0 | 3.2 | 0.00 | 0.00 | 0.00 | 61 | 1016.4 |
| 20260508205342 | 13 | 135 | 1.6 | 3.2 | 0.00 | 0.00 | 0.00 | 59 | 1016.3 |
| 20260508204344 | 13 | 90 | 1.6 | 3.2 | 0.00 | 0.00 | 0.00 | 62 | 1016.2 |
| 20260508203347 | 13 | 90 | 3.2 | 6.4 | 0.00 | 0.00 | 0.00 | 61 | 1016.3 |
| 20260508202349 | 12 | 180 | 0.0 | 3.2 | 0.00 | 0.00 | 0.00 | 61 | 1016.2 |
| 20260508201351 | 12 | 180 | 0.0 | 1.6 | 0.00 | 0.00 | 0.00 | 61 | 1015.9 |
| 20260508200353 | 12 | 225 | 0.0 | 3.2 | 0.00 | 0.00 | 0.00 | 61 | 1015.7 |
| 20260508195356 | 12 | 180 | 1.6 | 3.2 | 0.00 | 0.00 | 0.00 | 62 | 1015.7 |
| 20260508194358 | 12 | 90 | 0.0 | 3.2 | 0.00 | 0.00 | 0.00 | 60 | 1015.5 |
| 20260508193400 | 13 | 0 | 0.0 | 0.0 | 0.00 | 0.00 | 0.00 | 61 | 1015.4 |
| 20260508192403 | 12 | 90 | 1.6 | 3.2 | 0.00 | 0.00 | 0.00 | 60 | 1015.3 |
| 20260508191405 | 13 | 0 | 0.0 | 1.6 | 0.00 | 0.00 | 0.00 | 60 | 1015.0 |
| 20260508190407 | 13 | 90 | 1.6 | 3.2 | 0.00 | 0.00 | 0.00 | 60 | 1014.9 |
| 20260508185410 | 13 | 90 | 1.6 | 3.2 | 0.00 | 0.00 | 0.00 | 59 | 1014.8 |
| 20260508184412 | 13 | 225 | 0.0 | 3.2 | 0.00 | 0.00 | 0.00 | 56 | 1014.8 |
| 20260508183415 | 13 | 135 | 0.0 | 3.2 | 0.00 | 0.00 | 0.00 | 56 | 1014.7 |
| 20260508182417 | 13 | 45 | 1.6 | 3.2 | 0.00 | 0.00 | 0.00 | 58 | 1014.5 |
| 20260508181419 | 13 | 45 | 0.0 | 3.2 | 0.00 | 0.00 | 0.00 | 56 | 1014.4 |
| 20260508180421 | 13 | 90 | 1.6 | 4.8 | 0.00 | 0.00 | 0.00 | 54 | 1014.3 |
| 20260508175424 | 14 | 225 | 0.0 | 3.2 | 0.00 | 0.00 | 0.00 | 53 | 1014.1 |
| 20260508174426 | 14 | 45 | 0.0 | 1.6 | 0.00 | 0.00 | 0.00 | 49 | 1014.0 |
| 20260508173429 | 14 | 180 | 0.0 | 3.2 | 0.00 | 0.00 | 0.00 | 50 | 1013.9 |
| 20260508172431 | 15 | 180 | 0.0 | 1.6 | 0.00 | 0.00 | 0.00 | 47 | 1013.7 |
| 20260508171433 | 15 | 0 | 0.0 | 3.2 | 0.00 | 0.00 | 0.00 | 48 | 1013.6 |
| 20260508170436 | 15 | 90 | 1.6 | 3.2 | 0.00 | 0.00 | 0.00 | 47 | 1013.6 |
| 20260508165438 | 15 | 0 | 0.0 | 3.2 | 0.00 | 0.00 | 0.00 | 46 | 1013.6 |
| 20260508164441 | 15 | 0 | 0.0 | 3.2 | 0.00 | 0.00 | 0.00 | 43 | 1013.6 |
| 20260508163443 | 15 | 270 | 3.2 | 4.8 | 0.00 | 0.00 | 0.00 | 42 | 1013.6 |
| 20260508162445 | 15 | 225 | 3.2 | 8.0 | 0.00 | 0.00 | 0.00 | 41 | 1013.4 |
| 20260508161448 | 16 | 315 | 1.6 | 3.2 | 0.00 | 0.00 | 0.00 | 41 | 1013.5 |
| 20260508160450 | 16 | 270 | 4.8 | 11.3 | 0.00 | 0.00 | 0.00 | 35 | 1013.3 |
| 20260508155452 | 16 | 315 | 0.0 | 8.0 | 0.00 | 0.00 | 0.00 | 38 | 1013.4 |
| 20260508154454 | 16 | 225 | 0.0 | 3.2 | 0.00 | 0.00 | 0.00 | 40 | 1013.4 |
| 20260508153457 | 16 | 135 | 0.0 | 4.8 | 0.00 | 0.00 | 0.00 | 39 | 1013.5 |
| 20260508152459 | 16 | 45 | 0.0 | 3.2 | 0.00 | 0.00 | 0.00 | 39 | 1013.2 |
| 20260508151502 | 16 | 315 | 0.0 | 3.2 | 0.00 | 0.00 | 0.00 | 37 | 1013.3 |
| 20260508150504 | 16 | 45 | 0.0 | 6.4 | 0.00 | 0.00 | 0.00 | 38 | 1013.2 |
| 20260508145506 | 17 | 0 | 0.0 | 4.8 | 0.00 | 0.00 | 0.00 | 34 | 1013.2 |
| 20260508144508 | 17 | 0 | 0.0 | 4.8 | 0.00 | 0.00 | 0.00 | 35 | 1013.1 |
| 20260508143511 | 17 | 270 | 4.8 | 9.7 | 0.00 | 0.00 | 0.00 | 28 | 1012.8 |
| 20260508142513 | 17 | 225 | 1.6 | 8.0 | 0.00 | 0.00 | 0.00 | 34 | 1013.1 |
| 20260508141515 | 17 | 315 | 0.0 | 3.2 | 0.00 | 0.00 | 0.00 | 34 | 1012.8 |
| 20260508140517 | 17 | 45 | 0.0 | 6.4 | 0.00 | 0.00 | 0.00 | 34 | 1012.7 |
| 20260508135520 | 18 | 315 | 1.6 | 8.0 | 0.00 | 0.00 | 0.00 | 23 | 1012.6 |
| 20260508134522 | 17 | 225 | 1.6 | 4.8 | 0.00 | 0.00 | 0.00 | 27 | 1012.6 |
| 20260508133524 | 18 | 293 | 4.8 | 12.9 | 0.00 | 0.00 | 0.00 | 23 | 1012.5 |
| 20260508132526 | 18 | 270 | 1.6 | 4.8 | 0.00 | 0.03 | 0.00 | 22 | 1012.4 |
| 20260508131529 | 18 | 270 | 0.0 | 4.8 | 0.00 | 0.05 | 0.00 | 23 | 1012.4 |
| 20260508130531 | 18 | 270 | 3.2 | 9.7 | 0.00 | 0.05 | 0.00 | 21 | 1012.4 |
| 20260508125533 | 18 | 225 | 1.6 | 4.8 | 0.00 | 0.05 | 0.00 | 22 | 1012.4 |
| 20260508124535 | 18 | 270 | 3.2 | 9.7 | 0.00 | 0.05 | 0.00 | 21 | 1012.4 |
| 20260508123538 | 19 | 225 | 3.2 | 8.0 | 0.00 | 0.05 | 0.00 | 23 | 1012.2 |
| 20260508122540 | 19 | 225 | 3.2 | 8.0 | 0.00 | 0.05 | 0.00 | 25 | 1012.2 |
| 20260508121542 | 19 | 270 | 1.6 | 6.4 | 0.00 | 0.05 | 0.00 | 30 | 1012.1 |
| 20260508120545 | 19 | 315 | 0.0 | 6.4 | 0.00 | 0.05 | 0.00 | 32 | 1011.9 |
| 20260508115547 | 20 | 270 | 3.2 | 11.3 | 0.00 | 0.05 | 0.00 | 31 | 1011.7 |
| 20260508114549 | 20 | 225 | 1.6 | 3.2 | 0.00 | 0.05 | 0.00 | 31 | 1011.6 |
| 20260508113552 | 20 | 248 | 0.0 | 6.4 | 0.00 | 0.05 | 0.00 | 30 | 1011.4 |
| 20260508112554 | 20 | 270 | 0.0 | 8.0 | 0.00 | 0.05 | 0.00 | 29 | 1011.1 |
| 20260508111556 | 20 | 270 | 4.8 | 9.7 | 0.00 | 0.05 | 0.00 | 28 | 1010.8 |
| 20260508110558 | 20 | 315 | 9.7 | 17.7 | 0.00 | 0.05 | 0.00 | 28 | 1010.6 |
| 20260508105601 | 21 | 270 | 4.8 | 17.7 | 0.00 | 0.05 | 0.00 | 27 | 1010.2 |
| 20260508104603 | 21 | 270 | 9.7 | 19.3 | 0.00 | 0.05 | 0.00 | 27 | 1009.9 |
| 20260508103605 | 21 | 270 | 8.0 | 20.9 | 0.00 | 0.05 | 0.00 | 28 | 1009.7 |